User: anonymous   Login
Location: Hiram
(41.3130°N, 81.1440°W)
Time: 22:10:37
(UTC-04:00)
Language:

Iridium 62 - Orbit

View from above orbital plane
View from above orbital plane
View from above satellite
View from above satellite

Ground track
Ground track

The orbit data is extracted from the following two-line orbital elements,

1 25285U 98021A   18170.29324136  .00000194  00000-0  56741-4 0  9990
2 25285  86.4226  70.4881 0002052  87.2963 272.8470 14.38609426 57649
Epoch (UTC): 19 June 2018 07:02:16
Eccentricity: 0.0002052
inclination: 86.4226°
perigee height: 761 km
apogee height: 764 km
right ascension of ascending node: 70.4881°
argument of perigee: 87.2963°
revolutions per day: 14.38609426
mean anomaly at epoch: 272.8470°
orbit number at epoch: 5764

The dashed part of the orbit path shows where the satellite is in the earth's shadow,  

DLR